Location: Ajisawe
(8.4333°N, 4.3833°E)
Time: 16:46:49
(UTC+00:00)

Hubble Space Telescope - Visible Passes

Search period start: 08 March 2021 00:00
Search period end: 18 March 2021 00:00
Orbit: 535 x 539 km, 28.5° (Epoch: 08 March)

Date Brightness Start Highest point End Pass type
(mag) Time Alt. Az. Time Alt. Az. Time Alt. Az.
14 Mar 3.0 18:51:54 10° N 18:53:16 11° NNE 18:54:04 11° NNE visible
15 Mar 2.8 18:40:16 10° NNW 18:42:32 14° NNE 18:44:04 12° NE visible
16 Mar 2.6 18:28:54 10° NNW 18:31:46 18° NNE 18:34:08 12° ENE visible
16 Mar 3.8 20:08:57 10° WNW 20:09:28 13° WNW 20:09:28 13° WNW visible
17 Mar 2.2 18:17:40 10° NNW 18:20:59 23° NNE 18:24:15 10° ENE visible
17 Mar 3.2 19:58:08 10° WNW 19:59:36 21° WNW 19:59:36 21° WNW visible
